Regional Weather Roundup
Issued by NWS

Current Version | Previous Version | Text Only | Print | Product List | Glossary On
Versions: 1 2 3 4 5 6 7 8 9 10 11 12 13 14 15 16 17 18 19 20 21 22 23 24 25 26 27
000
ASUS43 KMPX 261210
RWRMN
WEATHER ROUNDUP FOR MINNESOTA
NATIONAL WEATHER SERVICE TWIN CITIES/CHANHASSEN MN
600 AM CST SAT NOV 26 2022


NOTE: "FAIR" INDICATES FEW OR NO CLOUDS BELOW 12,000 FEET WITH NO
SIGNIFICANT WEATHER AND/OR OBSTRUCTIONS TO VISIBILITY. N/A MEANS
CURRENT SKY AND/OR WEATHER CONDITIONS ARE NOT AVAILABLE.

MNZ060>063-068>070-261300-
   Twin Cities Metro

CITY           SKY/WX    TMP DP  RH WIND       PRES   REMARKS
TWIN CITIES    PTCLDY    41  24  51 S8        29.80F
6HR MIN TEMP:  40; 6HR MAX TEMP:  43;

ST PAUL        PTCLDY    36  27  69 SE9       29.82F
CRYSTAL        PTCLDY    39  26  59 S10       29.77F
BLAINE         PTCLDY    43  27  52 S13       29.77F
LAKEVILLE      CLEAR     37  25  60 CALM      29.82F
EDEN PRAIRIE   PTCLDY    38  25  59 S14       29.78F
6HR MIN TEMP:  38; 6HR MAX TEMP:  42;

SOUTH ST PAUL  PTCLDY    37  26  65 S5        29.81F
LAKE ELMO      FAIR      36  28  75 S12       29.81F
$$
MNZ001>005-007-008-013>017-022>024-027-028-261300-
   Northwest Minnesota

CITY           SKY/WX    TMP DP  RH WIND       PRES   REMARKS
BEMIDJI        MOCLDY    41  29  63 CALM      29.60S
HALLOCK        MOCLDY    34  30  86 SW6       29.59R WCI  29
ROSEAU         MOCLDY    37  32  81 SW10      29.57R
WARROAD          N/A     36  32  87 SW5       29.57R
THIEF RVR FALL MOCLDY    33  31  92 SW6       29.62R WCI  28
CROOKSTON        N/A     32  27  80 S5        29.64R WCI  27
FOSSTON        MOCLDY    34  28  80 S7        29.63R WCI  28
DETROIT LAKES  PTCLDY    39  28  65 S6        29.63F
MOORHEAD       PTCLDY    37  28  70 S7        29.66S
PARK RAPIDS    PTCLDY    36  27  69 SW6       29.63F
MAHNOMEN       FAIR      35  30  82 S10       29.63S WCI  27
$$
MNZ006-009>011-018-025>026-261300-
   North Central Minnesota

CITY           SKY/WX    TMP DP  RH WIND       PRES   REMARKS
BAUDETTE       PTCLDY    38  29  70 W6        29.57R
FLAG ISLAND      N/A     34  28  80 CALM      29.55R
INTL FALLS     MOCLDY    38  30  73 SW8       29.56R
6HR MIN TEMP:  36; 6HR MAX TEMP:  39;

WASKISH        MOCLDY    39  32  75 W6        29.59R
BIG FORK       MOCLDY    41  30  65 SW7       29.64F
LONGVILLE      PTCLDY    41  28  60 SW3       29.63F
GRAND RAPIDS   PTCLDY    43  28  55 SW5       29.64F
CRANE LAKE     MOCLDY    39  28  65 SW3       29.59S
ORR            MOCLDY    36  30  80 S5        29.56F
COOK           PTCLDY    39  28  65 SW8       29.59F
WALKER         MOSUNNY   39  28  64 SW8       29.61F
$$
MNZ012-019>021-037-261300-
   Northeast Minnesota

CITY           SKY/WX    TMP DP  RH WIND       PRES   REMARKS
DULUTH         PTCLDY    39  27  62 SW14      29.64F
6HR MIN TEMP:  38; 6HR MAX TEMP:  40;

ELY            MOCLDY    37  28  70 SW6       29.60F
HIBBING        PTCLDY    34  26  72 S3        29.62F
EVELETH        PTCLDY    37  28  70 W6        29.63F
DULUTH HARBOR  PTCLDY    41  28  60 SW10      29.66F
TWO HARBORS    PTCLDY    36  28  75 SW7       29.63F
GRAND MARAIS     N/A     41  33  73 W8        29.60F
G MARAIS ARPRT MOCLDY    36  30  80 SW5       29.56F
$$
MNZ029>031-032-039>041-046>048-054>057-064-261300-
   West Central Minnesota

CITY           SKY/WX    TMP DP  RH WIND       PRES   REMARKS
FERGUS FALLS   PTCLDY    34  28  80 SE5       29.65F WCI  30
WHEATON          N/A     32  27  80 S5        29.68S WCI  27
MORRIS         PTCLDY    36  27  69 S10       29.70S
ALEXANDRIA     PTCLDY    37  27  67 SW10      29.68F
ELBOW LAKE     FAIR      37  29  72 S8G16     29.68S
WADENA         PTCLDY    39  27  60 S8        29.64F
GLENWOOD       PTCLDY    37  27  65 SW10      29.70F
APPLETON         N/A     39  25  56 SW9       29.70F
BENSON         PTCLDY    36  27  69 S12       29.71F
ORTONVILLE       N/A     37  27  65 S3        29.69S
MADISON        PTCLDY    36  28  75 S7        29.72F
WILLMAR        FAIR      37  27  65 S3        29.76F
$$
MNZ033>034-036-042>043-049>051-058-059-261300-
   Central Minnesota

CITY           SKY/WX    TMP DP  RH WIND       PRES   REMARKS
ST CLOUD       PTCLDY    35  27  72 S5        29.73F WCI  31
6HR MIN TEMP:  35; 6HR MAX TEMP:  39;

SAUK CENTRE    FAIR      34  28  77 S5        29.70F WCI  30
PAYNESVILLE    PTCLDY    37  27  65 SW8       29.72F
AITKIN         PTCLDY    39  28  65 S3        29.66F
PINE RIVER     PTCLDY    36  28  75 CALM      29.68F
BRAINERD       PTCLDY    40  27  59 S13       29.67F
STAPLES          N/A     37  28  70 S7        29.66F
LONG PRAIRIE   FAIR      34  28  80 S8        29.69F WCI  27
CAMP RIPLEY    FAIR      38  27  66 S8        29.68S
LITCHFIELD     PTCLDY    36  25  64 S5        29.74F
BUFFALO        PTCLDY    37  27  65 SW8       29.76F
MAPLE LAKE     PTCLDY    38  27  64 S9        29.75F
HUTCHINSON     MOCLDY    35  27  74 S5        29.78F WCI  31
$$
MNZ037-044-045-052-053-261300-
   East Central Minnesota

CITY           SKY/WX    TMP DP  RH WIND       PRES   REMARKS
PRINCETON      PTCLDY    37  27  65 S3        29.75F
MORA           PTCLDY    37  28  70 S6        29.77F
CAMBRIDGE      PTCLDY    37  21  52 S8        29.75F
RUSH CITY      PTCLDY    42  30  63 S6        29.76F
MOOSE LAKE     PTCLDY    36  28  75 S6        29.70F
HINCKLEY       MOSUNNY   36  28  75 S7        29.73F
MCGREGOR       PTCLDY    39  30  70 S7        29.66F
$$
MNZ071>073-080-081-089-090-097-098-261300-
   Southwest Minnesota

CITY           SKY/WX    TMP DP  RH WIND       PRES   REMARKS
MONTEVIDEO     PTCLDY    36  27  69 S3        29.72F
GRANITE FALLS  PTCLDY    37  28  72 SE8       29.75F
CANBY          CLEAR     43  24  47 SW10      29.71F
MARSHALL       PTCLDY    39  23  52 S16       29.74F
REDWOOD FALLS  PTCLDY    34  24  67 S12       29.76F WCI  25
OLIVIA         PTCLDY    36  25  64 SE9       29.75F
WINDOM         CLEAR     37  21  52 S16       29.80S
WORTHINGTON    CLEAR     37  20  50 SW20      29.80F
JACKSON        CLEAR     37  23  56 SW15      29.83F
TRACY          CLEAR     39  21  48 S16       29.75S
SLAYTON        CLEAR     35  21  56 S22       29.77F WCI  24
$$
MNZ065>067-074>077-082>085-091>093-261300-
   South Central Minnesota

CITY           SKY/WX    TMP DP  RH WIND       PRES   REMARKS
MANKATO        CLEAR     37  24  59 S13       29.83F
ST JAMES       CLEAR     37  25  60 S14       29.80S
GLENCOE        PTCLDY    35  27  73 S9        29.78F WCI  28
FARIBAULT      CLEAR     37  27  65 S8        29.84F
OWATONNA       CLEAR     37  27  65 S12       29.86F
WASECA         CLEAR     36  27  69 S13G18    29.86F
ALBERT LEA     CLEAR     37  27  65 SW10      29.87F
$$
MNZ078>079-086>088-094>096-261300-
   Southeast Minnesota

CITY           SKY/WX    TMP DP  RH WIND       PRES   REMARKS
ROCHESTER      CLEAR     34  26  72 S16       29.88F WCI  24
6HR MIN TEMP:  34; 6HR MAX TEMP:  38;

RED WING       CLEAR     37  25  60 CALM      29.85F
STANTON        CLEAR     38  27  63 SW10      29.84F
DODGE CENTER   CLEAR     36  27  69 S14G20    29.87F
WINONA         CLEAR     39  27  60 SW3       29.92F
AUSTIN         CLEAR     36  27  69 S9        29.90F
PRESTON        CLEAR     34  26  72 SW15      29.91F WCI  25
$$
ABBREVIATIONS USED IN REMARKS
   TC - TEMPERATURES IN CELSIUS
  WCI - WIND CHILL INDEX
   HX - HEAT INDEX
  VSB - VISIBILITY
$$



USA.gov is the U.S. government's official web portal to all federal, state and local government web resources and services.